Weather reports worldwide

Advertisment
Greybull, wy, United States of America (2074482): temperature & dewpoint: 06.07.2020 06:00:00 - 12.07.2020 06:00:00 (MDT)Greybull, wy, United States of America (2074482): wind speed & gusts: 06.07.2020 06:00:00 - 12.07.2020 06:00:00 (MDT)Greybull, wy, United States of America (2074482): wind direction: 06.07.2020 06:00:00 - 12.07.2020 06:00:00 (MDT)Greybull, wy, United States of America (2074482): reduced air pressure: 06.07.2020 06:00:00 - 12.07.2020 06:00:00 (MDT)Greybull, wy, United States of America (2074482): visibility: 06.07.2020 06:00:00 - 12.07.2020 06:00:00 (MDT)
Date & Time tt [°C] td [°C] ff [km/h] ff [kn] fx [km/h] fx [kn] dd ppp [hPa] vv [km]
12.07.2020 06:00:00 13,9 6,1 0 0 - - N 1012,2 16
12.07.2020 05:00:00 15,0 5,0 9 5 - - SE 1012,0 16
12.07.2020 04:00:00 15,0 7,8 11 6 - - ESE 1012,2 16
12.07.2020 03:00:00 17,2 6,7 0 0 - - N 1012,3 16
12.07.2020 02:00:00 18,9 8,3 0 0 - - N 1012,1 16
12.07.2020 01:00:00 20,0 8,3 0 0 - - N 1012,7 16
12.07.2020 00:00:00 21,7 7,8 5 3 - - SW 1012,9 16
11.07.2020 23:00:00 24,4 7,8 16 9 - - WNW 1012,7 16
11.07.2020 22:00:00 27,2 7,2 18 10 - - NW 1012,6 16
11.07.2020 21:00:00 29,4 3,9 16 9 - - NW 1012,4 16
11.07.2020 20:00:00 32,2 1,7 16 9 - - N 1012,4 16
11.07.2020 19:00:00 33,9 0,6 11 6 - - N 1012,6 16
11.07.2020 18:00:00 33,9 -0,6 11 6 - - NW 1013,2 16
11.07.2020 17:00:00 32,8 2,2 8 4 - - SE 1014,1 16
11.07.2020 16:00:00 33,3 2,2 0 0 - - N 1014,4 16
11.07.2020 15:00:00 31,1 2,8 5 3 - - - 1015,4 16
11.07.2020 14:00:00 30,6 3,3 9 5 - - N 1016,4 16
11.07.2020 13:00:00 28,9 6,1 0 0 - - N 1017,5 16
11.07.2020 12:00:00 26,1 6,1 0 0 - - N 1018,6 16
11.07.2020 11:00:00 25,6 7,8 0 0 - - N 1018,9 16
11.07.2020 10:00:00 22,2 7,8 9 5 - - - 1020,0 16
11.07.2020 09:00:00 19,4 8,3 5 3 - - - 1020,5 16
11.07.2020 08:00:00 16,7 7,8 0 0 - - N 1020,7 16
11.07.2020 07:00:00 13,9 6,7 0 0 - - N 1020,8 16
11.07.2020 06:00:00 13,3 6,1 5 3 - - SE 1020,3 16
11.07.2020 05:00:00 13,9 6,7 0 0 - - N 1019,8 16
11.07.2020 04:00:00 15,6 6,7 0 0 - - N 1019,0 16
11.07.2020 03:00:00 17,8 6,1 9 5 - - NW 1018,5 16
11.07.2020 02:00:00 18,3 6,1 11 6 - - NW 1018,4 16
11.07.2020 01:00:00 19,4 5,6 11 6 - - WNW 1017,7 16
11.07.2020 00:00:00 20,6 5,0 11 6 - - WNW 1017,1 16
10.07.2020 23:00:00 22,8 5,0 24 13 - - NW 1016,4 16
10.07.2020 22:00:00 23,9 5,6 21 11 - - NW 1015,8 16
10.07.2020 21:00:00 25,0 5,6 18 10 - - NW 1015,3 16
10.07.2020 20:00:00 27,2 6,1 31 17 50 27 NNW 1014,8 16
10.07.2020 19:00:00 29,4 6,7 29 16 50 27 NNW 1014,4 16
10.07.2020 18:00:00 30,6 6,7 29 16 48 26 NNW 1013,6 16
10.07.2020 17:00:00 31,1 6,7 29 16 - - NNW 1013,3 16
10.07.2020 16:00:00 31,7 5,0 29 16 50 27 NNW 1012,3 16
10.07.2020 15:00:00 32,2 5,6 34 18 50 27 NNW 1011,6 16
10.07.2020 14:00:00 30,6 7,2 28 15 52 28 NNW 1011,6 16
10.07.2020 13:00:00 30,0 8,9 28 15 - - NNW 1011,3 16
10.07.2020 12:00:00 29,4 7,8 - - - - - 1010,8 16
10.07.2020 11:00:00 26,1 8,3 11 6 - - - 1010,8 16
10.07.2020 10:00:00 23,9 9,4 8 4 - - - 1010,7 16
10.07.2020 09:00:00 20,0 8,9 9 5 - - SSE 1011,0 16
10.07.2020 08:00:00 17,2 7,8 11 6 - - SSW 1011,8 16
10.07.2020 07:00:00 13,9 7,8 5 3 - - ESE 1012,4 16
10.07.2020 06:00:00 13,9 8,3 5 3 - - - 1011,5 16
10.07.2020 05:00:00 14,4 7,2 8 4 - - ESE 1010,9 16
10.07.2020 04:00:00 16,7 8,3 5 3 - - W 1010,7 16
10.07.2020 03:00:00 18,3 8,3 11 6 - - WNW 1010,4 16
10.07.2020 02:00:00 20,0 8,3 13 7 - - NW 1010,3 16
10.07.2020 01:00:00 22,2 6,1 13 7 - - NW 1010,3 16
10.07.2020 00:00:00 23,3 3,3 11 6 - - WNW 1009,7 16
09.07.2020 23:00:00 25,0 1,7 13 7 - - S 1008,9 16
09.07.2020 22:00:00 26,7 1,7 8 4 52 28 N 1008,3 16
09.07.2020 21:00:00 28,9 2,8 22 12 - - SW 1008,2 16
09.07.2020 20:00:00 29,4 2,2 9 5 - - ESE 1007,9 16
09.07.2020 19:00:00 31,1 0,6 26 14 - - SE 1008,1 16
09.07.2020 18:00:00 32,2 0,6 21 11 - - SE 1008,2 16
09.07.2020 17:00:00 32,2 0,0 5 3 - - E 1008,6 16
09.07.2020 16:00:00 31,1 0,6 8 4 - - - 1008,8 16
09.07.2020 15:00:00 30,6 1,1 5 3 - - - 1009,4 16
09.07.2020 14:00:00 29,4 2,2 8 4 - - E 1010,1 16
09.07.2020 13:00:00 27,8 3,9 13 7 - - S 1011,2 16
09.07.2020 12:00:00 26,1 5,0 8 4 - - ESE 1012,0 16
09.07.2020 11:00:00 23,9 5,0 9 5 - - - 1012,7 16
09.07.2020 10:00:00 21,1 6,1 - - - - - 1013,3 16
09.07.2020 09:00:00 18,3 6,1 0 0 - - N 1013,7 16
09.07.2020 08:00:00 16,1 5,6 0 0 - - N 1013,6 16
09.07.2020 07:00:00 13,3 5,0 0 0 - - N 1013,7 16
09.07.2020 06:00:00 11,7 5,0 5 3 - - SE 1013,5 16
09.07.2020 05:00:00 12,8 5,6 5 3 - - SE 1013,1 16
09.07.2020 04:00:00 15,0 4,4 0 0 - - N 1012,5 16
09.07.2020 03:00:00 15,6 4,4 0 0 - - N 1011,8 16
09.07.2020 02:00:00 16,7 4,4 5 3 - - SSE 1011,4 16
09.07.2020 01:00:00 17,8 4,4 0 0 - - N 1011,1 16
09.07.2020 00:00:00 20,0 3,9 16 9 - - NW 1010,5 16
08.07.2020 23:00:00 21,7 4,4 18 10 - - NW 1010,3 16
08.07.2020 22:00:00 23,3 5,0 18 10 - - NNW 1009,7 16
08.07.2020 21:00:00 25,0 6,1 26 14 - - NNW 1008,5 16
08.07.2020 20:00:00 27,8 5,0 24 13 - - NNW 1007,9 16
08.07.2020 19:00:00 29,4 3,3 29 16 - - N 1007,5 16
08.07.2020 18:00:00 30,0 1,1 18 10 - - N 1007,3 16
08.07.2020 17:00:00 30,6 1,1 15 8 - - N 1006,8 16
08.07.2020 16:00:00 28,9 -1,1 0 0 - - N 1006,8 16
08.07.2020 15:00:00 30,6 -1,1 - - - - - 1006,6 16
08.07.2020 14:00:00 28,9 1,1 9 5 - - - 1006,9 16
08.07.2020 13:00:00 27,2 2,8 8 4 - - - 1007,5 16
08.07.2020 12:00:00 25,0 4,4 0 0 - - N 1007,9 16
08.07.2020 11:00:00 23,9 6,7 8 4 - - N 1008,3 16
08.07.2020 10:00:00 21,1 6,7 0 0 - - N 1008,9 16
08.07.2020 09:00:00 18,9 6,7 0 0 - - N 1008,9 16
08.07.2020 08:00:00 16,1 6,1 0 0 - - N 1009,1 16
08.07.2020 07:00:00 12,2 6,7 5 3 - - ESE 1009,3 16
08.07.2020 06:00:00 11,7 3,3 11 6 - - SSE 1008,7 16
08.07.2020 05:00:00 12,2 5,0 0 0 - - N 1008,0 16
08.07.2020 04:00:00 13,9 6,1 5 3 - - SSW 1007,2 16
08.07.2020 03:00:00 16,1 6,1 11 6 - - W 1006,4 16
08.07.2020 02:00:00 15,6 6,1 9 5 - - NW 1006,5 16
08.07.2020 01:00:00 18,3 3,9 15 8 - - W 1005,9 16
08.07.2020 00:00:00 22,2 2,8 13 7 - - NW 1005,3 16
07.07.2020 23:00:00 23,3 2,8 18 10 - - NW 1005,4 16
07.07.2020 22:00:00 22,8 3,9 11 6 - - W 1004,5 16
07.07.2020 21:00:00 26,7 3,9 22 12 52 28 NNW 1002,7 16
07.07.2020 20:00:00 28,9 3,3 42 23 67 36 NW 1001,3 16
07.07.2020 19:00:00 33,3 -4,4 44 24 72 39 WNW 999,8 16
07.07.2020 18:00:00 34,4 -3,9 46 25 72 39 W 999,5 16
07.07.2020 17:00:00 33,9 0,6 24 13 - - W 999,5 16
07.07.2020 16:00:00 33,3 8,3 16 9 - - N 999,8 15
07.07.2020 15:00:00 33,9 8,3 18 10 - - N 998,9 8
07.07.2020 14:00:00 33,3 9,4 11 6 - - SSE 1000,2 16
07.07.2020 13:00:00 31,7 9,4 18 10 - - S 1001,1 16
07.07.2020 12:00:00 29,4 12,2 11 6 - - E 1002,2 16
07.07.2020 11:00:00 23,3 12,8 13 7 - - ESE 1004,0 16
07.07.2020 10:00:00 23,3 12,2 0 0 - - N 1005,2 16
07.07.2020 09:00:00 21,1 11,7 9 5 - - NW 1005,8 16
07.07.2020 08:00:00 20,0 11,1 0 0 - - N 1006,3 16
07.07.2020 07:00:00 17,2 11,1 5 3 - - ESE 1007,3 16
07.07.2020 06:00:00 15,0 11,1 5 3 - - ESE 1008,0 16
07.07.2020 05:00:00 14,4 11,1 8 4 - - ESE 1007,9 16
07.07.2020 04:00:00 15,6 11,1 5 3 - - S 1008,2 16
07.07.2020 03:00:00 17,2 11,1 8 4 - - ESE 1008,3 16
07.07.2020 02:00:00 20,0 11,1 11 6 - - NNW 1008,4 16
07.07.2020 01:00:00 21,1 11,1 11 6 - - NW 1008,2 16
07.07.2020 00:00:00 21,7 11,7 16 9 - - W 1008,4 16
06.07.2020 23:00:00 23,3 11,7 16 9 - - NW 1008,8 16
06.07.2020 22:00:00 24,4 11,7 21 11 - - NW 1008,4 16
06.07.2020 21:00:00 26,7 12,2 28 15 48 26 NNW 1007,5 16
06.07.2020 20:00:00 29,4 11,7 31 17 - - NNW 1007,1 16
06.07.2020 19:00:00 31,7 10,6 31 17 - - NNW 1007,1 16
06.07.2020 18:00:00 33,9 4,4 15 8 - - N 1007,1 16
06.07.2020 17:00:00 32,8 5,6 0 0 - - N 1007,8 16
06.07.2020 16:00:00 32,2 6,7 13 7 - - E 1008,3 16
06.07.2020 15:00:00 31,1 7,8 0 0 - - N 1009,4 16
06.07.2020 14:00:00 29,4 8,9 8 4 - - - 1010,3 16
06.07.2020 13:00:00 27,8 9,4 13 7 - - SSW 1011,3 16
06.07.2020 12:00:00 27,2 9,4 - - - - - 1011,9 16
06.07.2020 11:00:00 24,4 8,9 5 3 - - - 1012,8 16
06.07.2020 10:00:00 22,2 8,3 0 0 - - N 1013,6 16
06.07.2020 09:00:00 20,6 8,9 8 4 - - SSW 1014,2 16
06.07.2020 08:00:00 18,3 9,4 5 3 - - - 1014,1 16
06.07.2020 07:00:00 15,0 8,9 5 3 - - SE 1014,2 16
06.07.2020 06:00:00 13,3 8,9 0 0 - - N 1014,1 16

tt = temperature
td = dewpoint
ff = wind speed
fx = gusts
dd = wind direction
ppp = reduced air pressure
vv = visibility

Next stations